Date String (YYYY-MM-DD hh:mm:ss) UTC,Instrument flags,Ambient pressure (hPa),Sample flow (lpm),Bypass flow (lpm),Sample temperature (°C),Ambient temperature (°C),ASC tube jacket temperature (°C),LED temperature (°C),Box temperature (°C),Sample RH (%),Span deviation,Mass concentration (μg/m³),Mass concentration (μg/m³),Mass concentration (μg/m³)
DateTimeUTC,F1_M11,P_M11,Q1_M11,Q2_M11,T1_M11,T2_M11,T3_M11,T4_M11,T5_M11,U1_M11,ZSPAN_M11,X0_M11,X2_M11,X1_M11
2022-02-19 19:00:00,,0825.1,4.99,0.00,24.2,23.5,00.0,33.2,26.0,10.1,0000.0,0005.09,0002.69,0002.26
2022-02-19 19:01:00,,0825.1,4.99,0.00,24.2,23.5,00.0,33.2,26.0,10.6,0000.0,0005.33,0002.86,0002.38
2022-02-19 19:02:00,,0825.1,5.02,0.00,24.2,23.6,00.0,33.2,26.1,10.6,0000.0,0005.49,0002.98,0002.50
2022-02-19 19:03:00,,0825.1,5.01,0.00,24.2,23.6,00.0,33.2,26.1,10.8,0000.0,0005.57,0003.07,0002.62
2022-02-19 19:04:00,,0825.1,5.00,0.00,24.3,23.7,00.0,33.2,26.1,10.6,0000.0,0005.81,0003.17,0002.72
2022-02-19 19:05:00,,0825.0,4.99,0.00,24.3,23.7,00.0,33.2,26.1,10.6,0000.0,0006.06,0003.22,0002.81
2022-02-19 19:06:00,,0824.9,5.02,0.00,24.3,23.7,00.0,33.2,26.1,10.6,0000.0,0006.55,0003.26,0002.90
2022-02-19 19:07:00,,0825.0,5.00,0.00,24.3,23.7,00.0,33.2,26.2,11.4,0000.0,0007.38,0003.32,0003.00
2022-02-19 19:08:00,,0825.0,4.99,0.00,24.4,23.8,00.0,33.2,26.2,11.2,0000.0,0007.49,0003.37,0003.09
2022-02-19 19:09:00,,0825.1,4.99,0.00,24.4,23.8,00.0,33.3,26.3,11.0,0000.0,0007.56,0003.42,0003.15
2022-02-19 19:10:00,,0824.9,5.01,0.00,24.4,23.8,00.0,33.3,26.3,11.0,0000.0,0007.42,0003.46,0003.19
2022-02-19 19:11:00,,0824.9,5.00,0.00,24.4,23.8,00.0,33.3,26.3,10.8,0000.0,0006.48,0003.48,0003.22
2022-02-19 19:12:00,,0824.9,5.00,0.00,24.4,23.8,00.0,33.3,26.3,11.4,0000.0,0006.46,0003.49,0003.24
2022-02-19 19:13:00,,0824.9,4.99,0.00,24.5,23.9,00.0,33.3,26.3,11.6,0000.0,0006.56,0003.52,0003.26
2022-02-19 19:14:00,,0824.8,5.02,0.00,24.5,23.9,00.0,33.3,26.4,10.7,0000.0,0006.73,0003.56,0003.27
2022-02-19 19:15:00,,0824.8,5.00,0.00,24.5,23.9,00.0,33.3,26.4,10.8,0000.0,0006.78,0003.56,0003.28
2022-02-19 19:16:00,,0824.7,5.00,0.00,24.5,23.9,00.0,33.4,26.5,11.2,0000.0,0006.58,0003.55,0003.30
2022-02-19 19:17:00,,0824.8,5.00,0.00,24.5,23.9,00.0,33.4,26.5,10.6,0000.0,0006.34,0003.58,0003.32
2022-02-19 19:18:00,,0824.9,5.00,0.00,24.6,23.9,00.0,33.4,26.5,10.6,0000.0,0005.49,0003.60,0003.33
2022-02-19 19:19:00,,0824.6,5.00,0.00,24.6,24.0,00.0,33.4,26.5,10.7,0000.0,0005.54,0003.63,0003.34
2022-02-19 19:20:00,,0824.6,5.01,0.00,24.6,24.0,00.0,33.4,26.5,10.8,0000.0,0005.54,0003.64,0003.34
2022-02-19 19:21:00,,0824.6,5.00,0.00,24.6,24.0,00.0,33.4,26.5,10.8,0000.0,0005.40,0003.60,0003.33
2022-02-19 19:22:00,,0824.6,4.99,0.00,24.6,24.0,00.0,33.5,26.5,11.5,0000.0,0005.32,0003.60,0003.31
2022-02-19 19:23:00,,0824.6,5.00,0.00,24.7,24.1,00.0,33.5,26.5,10.9,0000.0,0005.21,0003.57,0003.29
2022-02-19 19:24:00,,0824.5,5.00,0.00,24.7,24.1,00.0,33.5,26.6,10.7,0000.0,0005.16,0003.56,0003.28
2022-02-19 19:25:00,,0824.6,5.00,0.00,24.7,24.1,00.0,33.5,26.6,10.8,0000.0,0005.01,0003.53,0003.27
2022-02-19 19:26:00,,0824.6,5.00,0.00,24.7,24.2,00.0,33.5,26.6,11.1,0000.0,0005.27,0003.51,0003.26
2022-02-19 19:27:00,,0824.5,4.99,0.00,24.8,24.2,00.0,33.6,26.7,11.0,0000.0,0006.66,0003.54,0003.24
2022-02-19 19:28:00,,0824.4,5.00,0.00,24.8,24.2,00.0,33.6,26.7,11.0,0000.0,0006.87,0003.54,0003.23
2022-02-19 19:29:00,,0824.4,5.00,0.00,24.8,24.2,00.0,33.6,26.7,11.0,0000.0,0007.36,0003.54,0003.21
2022-02-19 19:30:00,,0824.3,4.99,0.00,24.8,24.3,00.0,33.6,26.8,11.4,0000.0,0007.57,0003.51,0003.20
2022-02-19 19:31:00,,0824.3,5.00,0.00,24.9,24.3,00.0,33.7,26.8,11.2,0000.0,0007.92,0003.52,0003.21
2022-02-19 19:32:00,,0824.3,4.99,0.00,24.9,24.3,00.0,33.7,26.8,11.7,0000.0,0007.89,0003.53,0003.23
2022-02-19 19:33:00,,0824.3,5.00,0.00,24.9,24.3,00.0,33.7,26.8,11.6,0000.0,0007.87,0003.53,0003.26
2022-02-19 19:34:00,,0824.3,4.99,0.00,24.9,24.3,00.0,33.7,26.8,11.3,0000.0,0007.95,0003.58,0003.29
2022-02-19 19:35:00,,0824.3,4.99,0.00,24.9,24.3,00.0,33.7,26.8,11.2,0000.0,0008.64,0003.60,0003.31
2022-02-19 19:36:00,,0824.2,5.02,0.00,24.9,24.3,00.0,33.8,26.8,11.3,0000.0,0008.85,0003.66,0003.35
2022-02-19 19:37:00,,0824.1,4.99,0.00,24.9,24.3,00.0,33.8,26.8,10.9,0000.0,0009.21,0003.72,0003.39
2022-02-19 19:38:00,,0824.1,4.98,0.00,24.9,24.3,00.0,33.8,26.8,10.6,0000.0,0008.58,0003.74,0003.43
2022-02-19 19:39:00,,0824.1,5.01,0.00,25.0,24.3,00.0,33.8,26.8,10.6,0000.0,0008.59,0003.76,0003.45
2022-02-19 19:40:00,,0824.0,5.00,0.00,25.0,24.3,00.0,33.8,26.8,11.0,0000.0,0008.77,0003.78,0003.49
2022-02-19 19:41:00,,0824.1,4.99,0.00,25.0,24.3,00.0,33.8,26.9,10.7,0000.0,0009.03,0003.83,0003.54
2022-02-19 19:42:00,,0824.1,5.00,0.00,25.0,24.3,00.0,33.9,26.9,11.0,0000.0,0008.84,0003.87,0003.59
2022-02-19 19:43:00,,0824.0,5.01,0.00,25.0,24.3,00.0,33.9,26.9,11.0,0000.0,0009.56,0003.95,0003.65
2022-02-19 19:44:00,,0824.1,5.00,0.00,25.0,24.3,00.0,33.9,26.9,10.3,0000.0,0009.70,0004.00,0003.71
2022-02-19 19:45:00,,0824.1,4.99,0.00,25.0,24.3,00.0,33.9,26.9,09.5,0000.0,0009.59,0003.90,0003.64
2022-02-19 19:46:00,,0823.9,5.00,0.00,25.0,24.3,00.0,33.9,26.8,09.2,0000.0,0008.75,0003.74,0003.49
2022-02-19 19:47:00,,0823.9,5.00,0.00,25.0,24.3,00.0,33.9,26.9,08.7,0000.0,0008.44,0003.58,0003.35
2022-02-19 19:48:00,,0823.8,5.00,0.00,25.0,24.4,00.0,33.9,26.9,09.6,0000.0,0007.94,0003.42,0003.22
2022-02-19 19:49:00,,0823.8,5.01,0.00,25.1,24.4,00.0,33.9,26.9,09.9,0000.0,0007.55,0003.28,0003.05
2022-02-19 19:50:00,,0823.8,4.99,0.00,25.1,24.4,00.0,33.9,26.9,10.0,0000.0,0007.27,0003.11,0002.82
2022-02-19 19:51:00,,0823.7,5.01,0.00,25.1,24.5,00.0,33.9,27.0,09.9,0000.0,0006.29,0002.86,0002.57
2022-02-19 19:52:00,,0823.7,5.00,0.00,25.1,24.5,00.0,34.0,27.0,09.1,0000.0,0004.71,0002.55,0002.29
2022-02-19 19:53:00,,0823.6,4.99,0.00,25.2,24.4,00.0,34.0,27.0,09.4,0000.0,0004.30,0002.30,0002.04
2022-02-19 19:54:00,,0823.7,5.02,0.00,25.2,24.4,00.0,34.0,27.0,09.5,0000.0,0002.86,0002.00,0001.78
2022-02-19 19:55:00,,0823.7,4.99,0.00,25.2,24.5,00.0,34.0,27.0,09.8,0000.0,0003.66,0001.75,0001.54
2022-02-19 19:56:00,,0823.6,4.99,0.00,25.2,24.5,00.0,34.0,27.1,10.3,0000.0,0004.76,0001.74,0001.51
2022-02-19 19:57:00,,0823.6,5.00,0.00,25.3,24.5,00.0,34.0,27.1,10.3,0000.0,0004.81,0001.89,0001.65
2022-02-19 19:58:00,,0823.7,5.02,0.00,25.3,24.6,00.0,34.1,27.2,10.5,0000.0,0004.95,0002.05,0001.82
2022-02-19 19:59:00,,0823.7,4.99,0.00,25.3,24.6,00.0,34.1,27.2,10.9,0000.0,0005.18,0002.22,0002.00
